TAP752 LPPT-EKCH

Flight info

Callsign TAP752
Flight time 3h 8m
Altitude 36000
Route IXIDA1N IXIDA DCT TOSDI DCT ZMR DCT NUBLO DCT RONSI DCT DELOG DCT USODA DCT ERCUT DCT DITAL UN873 BAZOS DCT BELDI/N0446F370 DCT VICOT DCT BEDUM DCT DOSUR DCT TALSA P729 TUDLO TUDLO3A
Aircraft A320/M-SDE3FGHIRWY/LB1

Departure

Time 2026-05-06 10:32
Airport Lisbon Humberto Delgado Airport (LPPT)

Arrival

Time 2026-05-06 13:40
Airport Copenhagen Kastrup Airport (EKCH)
Time Latitude Longitude Altitude Speed Heading
2026-05-06 09:57 38.76860 -9.13954 358 ft 0 kts 258°
2026-05-06 10:23 38.76865 -9.13925 359 ft 4 kts 255°
2026-05-06 10:24 38.76873 -9.13892 355 ft 4 kts 248°
2026-05-06 10:24 38.76886 -9.13862 352 ft 4 kts 227°
2026-05-06 10:24 38.76904 -9.13848 355 ft 2 kts 168°
2026-05-06 10:24 38.76909 -9.13849 353 ft 0 kts 168°
2026-05-06 10:27 38.76905 -9.13848 355 ft 3 kts 168°
2026-05-06 10:27 38.76848 -9.13832 346 ft 12 kts 168°
2026-05-06 10:27 38.76770 -9.13811 345 ft 11 kts 167°
2026-05-06 10:28 38.76696 -9.13791 344 ft 10 kts 168°
2026-05-06 10:28 38.76633 -9.13777 345 ft 8 kts 181°
2026-05-06 10:28 38.76598 -9.13839 349 ft 11 kts 258°
2026-05-06 10:28 38.76583 -9.13929 351 ft 9 kts 257°
2026-05-06 10:29 38.76560 -9.14012 351 ft 11 kts 234°
2026-05-06 10:29 38.76516 -9.14083 354 ft 9 kts 230°
2026-05-06 10:29 38.76494 -9.14155 345 ft 10 kts 265°
2026-05-06 10:29 38.76521 -9.14252 338 ft 13 kts 293°
2026-05-06 10:30 38.76561 -9.14372 332 ft 14 kts 296°
2026-05-06 10:30 38.76630 -9.14396 334 ft 9 kts 23°
2026-05-06 10:30 38.76641 -9.14390 333 ft 0 kts 23°
2026-05-06 10:31 38.76659 -9.14380 335 ft 15 kts 23°
2026-05-06 10:31 38.76982 -9.14208 349 ft 82 kts 23°
2026-05-06 10:31 38.77679 -9.13836 365 ft 133 kts 23°
2026-05-06 10:32 38.78671 -9.13315 402 ft 171 kts 21°
2026-05-06 10:32 38.79762 -9.12738 1091 ft 168 kts 19°
2026-05-06 10:32 38.80846 -9.12172 1778 ft 173 kts 19°
2026-05-06 10:32 38.82008 -9.11479 2062 ft 193 kts 29°
2026-05-06 10:33 38.83207 -9.10537 2445 ft 210 kts 30°
2026-05-06 10:33 38.84524 -9.09501 2773 ft 235 kts 30°
2026-05-06 10:33 38.85970 -9.08365 3339 ft 248 kts 29°
2026-05-06 10:33 38.87461 -9.07193 4160 ft 253 kts 29°
2026-05-06 10:34 38.88968 -9.06011 4992 ft 255 kts 29°
2026-05-06 10:34 38.90387 -9.04600 5775 ft 261 kts 40°
2026-05-06 10:34 38.91739 -9.03021 6599 ft 263 kts 40°
2026-05-06 10:34 38.93105 -9.01427 7319 ft 267 kts 40°
2026-05-06 10:35 38.94492 -8.99810 8059 ft 272 kts 40°
2026-05-06 10:35 38.95845 -8.98117 8783 ft 277 kts 43°
2026-05-06 10:35 38.97205 -8.96287 9545 ft 282 kts 44°
2026-05-06 10:35 38.98551 -8.94429 10221 ft 288 kts 44°
2026-05-06 10:36 38.99950 -8.92491 10407 ft 311 kts 44°
2026-05-06 10:36 39.01479 -8.90382 10613 ft 333 kts 44°
2026-05-06 10:36 39.03089 -8.88165 11088 ft 343 kts 44°
2026-05-06 10:36 39.04748 -8.85880 11736 ft 348 kts 44°
2026-05-06 10:37 39.06413 -8.83592 12383 ft 352 kts 44°
2026-05-06 10:37 39.08084 -8.81300 13030 ft 357 kts 44°
2026-05-06 10:37 39.09792 -8.78961 13672 ft 361 kts 43°
2026-05-06 10:37 39.11521 -8.76594 14249 ft 365 kts 43°
2026-05-06 10:38 39.13270 -8.74200 14817 ft 369 kts 43°
2026-05-06 10:38 39.15038 -8.71781 15378 ft 373 kts 43°
2026-05-06 10:38 39.16826 -8.69327 15926 ft 377 kts 43°
2026-05-06 10:38 39.18624 -8.66854 16481 ft 380 kts 43°
2026-05-06 10:39 39.20442 -8.64351 17011 ft 384 kts 43°
2026-05-06 10:39 39.22278 -8.61823 17552 ft 388 kts 43°
2026-05-06 10:39 39.24130 -8.59268 18080 ft 392 kts 42°
2026-05-06 10:39 39.26004 -8.56685 18561 ft 396 kts 42°
2026-05-06 10:40 39.27894 -8.54084 19018 ft 399 kts 42°
2026-05-06 10:40 39.29799 -8.51461 19462 ft 402 kts 42°
2026-05-06 10:40 39.31716 -8.48809 19911 ft 405 kts 42°
2026-05-06 10:40 39.33654 -8.46124 20363 ft 409 kts 42°
2026-05-06 10:41 39.35595 -8.43432 20819 ft 412 kts 42°
2026-05-06 10:41 39.37554 -8.40712 21248 ft 415 kts 42°
2026-05-06 10:41 39.39530 -8.37970 21678 ft 418 kts 42°
2026-05-06 10:41 39.41522 -8.35206 22106 ft 421 kts 41°
2026-05-06 10:42 39.43526 -8.32424 22526 ft 424 kts 41°
2026-05-06 10:42 39.45543 -8.29622 22940 ft 427 kts 41°
2026-05-06 10:42 39.47568 -8.26802 23342 ft 430 kts 41°
2026-05-06 10:42 39.49593 -8.23978 23716 ft 433 kts 41°
2026-05-06 10:43 39.51643 -8.21115 24049 ft 435 kts 41°
2026-05-06 10:43 39.53711 -8.18222 24396 ft 438 kts 41°
2026-05-06 10:43 39.55084 -8.16301 24620 ft 439 kts 41°
2026-05-06 10:44 39.59260 -8.10450 25275 ft 444 kts 41°
2026-05-06 10:44 39.61367 -8.07498 25606 ft 446 kts 41°
2026-05-06 10:44 39.63476 -8.04542 25935 ft 448 kts 41°
2026-05-06 10:44 39.65596 -8.01568 26255 ft 450 kts 40°
2026-05-06 10:45 39.67767 -7.98639 26577 ft 450 kts 38°
2026-05-06 10:45 39.70005 -7.95784 26896 ft 451 kts 37°
2026-05-06 10:45 39.72289 -7.92969 27209 ft 453 kts 36°
2026-05-06 10:45 39.74564 -7.90198 27521 ft 455 kts 36°
2026-05-06 10:46 39.76871 -7.87369 27825 ft 457 kts 36°
2026-05-06 10:46 39.79171 -7.84508 28120 ft 459 kts 37°
2026-05-06 10:46 39.81471 -7.81614 28394 ft 461 kts 37°
2026-05-06 10:46 39.83773 -7.78692 28636 ft 463 kts 37°
2026-05-06 10:47 39.86080 -7.75750 28888 ft 465 kts 37°
2026-05-06 10:47 39.88395 -7.72797 29111 ft 467 kts 37°
2026-05-06 10:47 39.90724 -7.69833 29372 ft 469 kts 37°
2026-05-06 10:47 39.93066 -7.66856 29611 ft 471 kts 37°
2026-05-06 10:48 39.95417 -7.63868 29870 ft 473 kts 37°
2026-05-06 10:48 39.97784 -7.60860 30104 ft 475 kts 37°
2026-05-06 10:48 40.00147 -7.57848 30392 ft 475 kts 37°
2026-05-06 10:48 40.02480 -7.54869 30677 ft 475 kts 37°
2026-05-06 10:49 40.04845 -7.51847 30933 ft 475 kts 37°
2026-05-06 10:49 40.07205 -7.48827 31200 ft 476 kts 37°
2026-05-06 10:49 40.09571 -7.45799 31479 ft 475 kts 37°
2026-05-06 10:49 40.11934 -7.42776 31745 ft 475 kts 37°
2026-05-06 10:50 40.14304 -7.39736 32019 ft 476 kts 37°
2026-05-06 10:50 40.16660 -7.36709 32299 ft 476 kts 38°
2026-05-06 10:50 40.19023 -7.33669 32582 ft 476 kts 38°
2026-05-06 10:50 40.21379 -7.30639 32859 ft 476 kts 38°
2026-05-06 10:51 40.23742 -7.27599 33138 ft 476 kts 38°
2026-05-06 10:51 40.26102 -7.24554 33415 ft 476 kts 38°
2026-05-06 10:51 40.28455 -7.21512 33718 ft 476 kts 38°
2026-05-06 10:51 40.30810 -7.18468 34007 ft 475 kts 38°
2026-05-06 10:52 40.33163 -7.15427 34257 ft 475 kts 38°
2026-05-06 10:52 40.35518 -7.12380 34510 ft 475 kts 38°
2026-05-06 10:52 40.37867 -7.09340 34728 ft 475 kts 39°
2026-05-06 10:52 40.40216 -7.06293 34968 ft 474 kts 39°
2026-05-06 10:53 40.42558 -7.03250 35197 ft 474 kts 39°
2026-05-06 10:53 40.44901 -7.00199 35418 ft 474 kts 39°
2026-05-06 10:53 40.47210 -6.97192 35627 ft 473 kts 39°
2026-05-06 10:53 40.49549 -6.94143 35830 ft 473 kts 39°
2026-05-06 10:54 40.51883 -6.91098 35974 ft 473 kts 39°
2026-05-06 10:54 40.56557 -6.85001 36010 ft 473 kts 40°
2026-05-06 10:55 40.61217 -6.78903 36011 ft 472 kts 40°
2026-05-06 10:55 40.65870 -6.72798 36008 ft 472 kts 40°
2026-05-06 10:56 40.70530 -6.66680 36010 ft 472 kts 40°
2026-05-06 10:56 40.75180 -6.60559 36011 ft 472 kts 40°
2026-05-06 10:57 40.79833 -6.54424 36015 ft 472 kts 40°
2026-05-06 10:57 40.84471 -6.48283 36018 ft 472 kts 40°
2026-05-06 10:58 40.89107 -6.42138 36017 ft 472 kts 40°
2026-05-06 10:58 40.93747 -6.35987 36027 ft 472 kts 41°
2026-05-06 10:59 40.98371 -6.29828 36018 ft 472 kts 41°
2026-05-06 10:59 41.03106 -6.23819 36020 ft 470 kts 38°
2026-05-06 11:00 41.07979 -6.18124 36021 ft 470 kts 37°
2026-05-06 11:00 41.12901 -6.12407 36031 ft 470 kts 37°
2026-05-06 11:01 41.17772 -6.06614 36018 ft 471 kts 38°
2026-05-06 11:01 41.22620 -6.00758 36017 ft 471 kts 38°
2026-05-06 11:02 41.27464 -5.94898 36014 ft 471 kts 38°
2026-05-06 11:02 41.32321 -5.89039 36014 ft 471 kts 38°
2026-05-06 11:03 41.37191 -5.83179 36012 ft 471 kts 38°
2026-05-06 11:03 41.42052 -5.77308 36016 ft 472 kts 38°
2026-05-06 11:04 41.46905 -5.71423 36014 ft 472 kts 38°
2026-05-06 11:04 41.51781 -5.65646 36020 ft 469 kts 32°
2026-05-06 11:05 41.57413 -5.61500 36019 ft 460 kts 18°
2026-05-06 11:05 41.63327 -5.58184 36020 ft 461 kts 19°
2026-05-06 11:06 41.69243 -5.54839 36028 ft 461 kts 19°
2026-05-06 11:06 41.75155 -5.51487 36028 ft 461 kts 19°
2026-05-06 11:07 41.81070 -5.48138 36027 ft 461 kts 19°
2026-05-06 11:07 41.86977 -5.44787 36024 ft 461 kts 19°
2026-05-06 11:08 41.92887 -5.41421 36020 ft 461 kts 19°
2026-05-06 11:08 41.98799 -5.38045 36017 ft 461 kts 19°
2026-05-06 11:09 42.04704 -5.34670 36016 ft 461 kts 19°
2026-05-06 11:09 42.10574 -5.31317 36015 ft 462 kts 19°
2026-05-06 11:10 42.16487 -5.27928 36019 ft 462 kts 19°
2026-05-06 11:10 42.22402 -5.24532 36018 ft 462 kts 19°
2026-05-06 11:11 42.28309 -5.21128 36017 ft 462 kts 19°
2026-05-06 11:11 42.34221 -5.17714 36011 ft 462 kts 19°
2026-05-06 11:12 42.40128 -5.14301 36009 ft 461 kts 20°
2026-05-06 11:12 42.46035 -5.10887 36007 ft 462 kts 20°
2026-05-06 11:13 42.51941 -5.07458 36005 ft 462 kts 20°
2026-05-06 11:13 42.57851 -5.04010 36007 ft 462 kts 20°
2026-05-06 11:14 42.63722 -5.00590 36012 ft 461 kts 20°
2026-05-06 11:14 42.69657 -4.97119 36012 ft 461 kts 20°
2026-05-06 11:15 42.75549 -4.93663 36009 ft 461 kts 20°
2026-05-06 11:15 42.81404 -4.90229 36012 ft 461 kts 20°
2026-05-06 11:16 42.87299 -4.86771 36016 ft 461 kts 20°
2026-05-06 11:16 42.93192 -4.83296 36020 ft 461 kts 20°
2026-05-06 11:17 42.99082 -4.79814 36022 ft 461 kts 20°
2026-05-06 11:17 43.04970 -4.76327 36027 ft 461 kts 20°
2026-05-06 11:18 43.10857 -4.72826 36036 ft 461 kts 21°
2026-05-06 11:18 43.16742 -4.69328 36038 ft 461 kts 21°
2026-05-06 11:19 43.22631 -4.65834 36049 ft 461 kts 21°
2026-05-06 11:19 43.28514 -4.62329 36056 ft 461 kts 21°
2026-05-06 11:20 43.34360 -4.58831 36061 ft 461 kts 21°
2026-05-06 11:20 43.40235 -4.55305 36066 ft 461 kts 21°
2026-05-06 11:21 43.46105 -4.51782 36065 ft 460 kts 21°
2026-05-06 11:21 43.51975 -4.48246 36058 ft 460 kts 21°
2026-05-06 11:22 43.57834 -4.44711 36059 ft 460 kts 21°
2026-05-06 11:22 43.63700 -4.41163 36053 ft 460 kts 21°
2026-05-06 11:23 43.69554 -4.37607 36061 ft 460 kts 21°
2026-05-06 11:23 43.75422 -4.34058 36058 ft 460 kts 21°
2026-05-06 11:24 43.81267 -4.30506 36057 ft 459 kts 21°
2026-05-06 11:24 43.87112 -4.26930 36057 ft 459 kts 21°
2026-05-06 11:25 43.92916 -4.23387 36054 ft 458 kts 21°
2026-05-06 11:25 43.98754 -4.19809 36057 ft 458 kts 22°
2026-05-06 11:26 44.04580 -4.16232 36053 ft 458 kts 22°
2026-05-06 11:26 44.10402 -4.12655 36050 ft 457 kts 22°
2026-05-06 11:27 44.16224 -4.09070 36048 ft 457 kts 22°
2026-05-06 11:27 44.22038 -4.05480 36051 ft 457 kts 22°
2026-05-06 11:28 44.27845 -4.01888 36046 ft 456 kts 22°
2026-05-06 11:28 44.33576 -3.98096 36051 ft 457 kts 30°
2026-05-06 11:29 44.38839 -3.93189 36046 ft 457 kts 33°
2026-05-06 11:29 44.44149 -3.88186 36047 ft 457 kts 33°
2026-05-06 11:30 44.49430 -3.83210 36044 ft 457 kts 33°
2026-05-06 11:30 44.54674 -3.78270 36041 ft 457 kts 33°
2026-05-06 11:31 44.59947 -3.73278 36042 ft 457 kts 33°
2026-05-06 11:31 44.65215 -3.68282 36039 ft 457 kts 33°
2026-05-06 11:32 44.70476 -3.63287 36035 ft 456 kts 33°
2026-05-06 11:32 44.75734 -3.58277 36036 ft 456 kts 33°
2026-05-06 11:33 44.80983 -3.53275 36028 ft 455 kts 33°
2026-05-06 11:33 44.85343 -3.49111 36033 ft 455 kts 33°
2026-05-06 11:34 44.90584 -3.44095 36032 ft 455 kts 33°
2026-05-06 11:34 44.95809 -3.39075 36022 ft 454 kts 32°
2026-05-06 11:35 45.01013 -3.34054 36039 ft 451 kts 32°
2026-05-06 11:35 45.06185 -3.29048 36035 ft 449 kts 32°
2026-05-06 11:36 45.11340 -3.24073 36037 ft 448 kts 32°
2026-05-06 11:36 45.16472 -3.19098 36029 ft 446 kts 32°
2026-05-06 11:37 45.21591 -3.14127 36026 ft 446 kts 32°
2026-05-06 11:37 45.26709 -3.09151 36024 ft 446 kts 33°
2026-05-06 11:38 45.31781 -3.04193 36018 ft 445 kts 33°
2026-05-06 11:38 45.36912 -2.99172 36013 ft 445 kts 33°
2026-05-06 11:39 45.41975 -2.94217 36012 ft 444 kts 32°
2026-05-06 11:39 45.47063 -2.89220 36004 ft 444 kts 33°
2026-05-06 11:40 45.52148 -2.84224 36005 ft 444 kts 33°
2026-05-06 11:40 45.57221 -2.79214 36001 ft 443 kts 33°
2026-05-06 11:41 45.62282 -2.74201 35993 ft 443 kts 33°
2026-05-06 11:41 45.67342 -2.69193 35988 ft 442 kts 33°
2026-05-06 11:42 45.72404 -2.64178 35987 ft 442 kts 33°
2026-05-06 11:42 45.77461 -2.59146 35991 ft 442 kts 33°
2026-05-06 11:43 45.82487 -2.54130 35987 ft 442 kts 33°
2026-05-06 11:43 45.87534 -2.49073 35983 ft 442 kts 33°
2026-05-06 11:44 45.95105 -2.41485 35986 ft 442 kts 33°
2026-05-06 11:44 46.00138 -2.36415 35978 ft 442 kts 33°
2026-05-06 11:45 46.05140 -2.31368 35975 ft 441 kts 33°
2026-05-06 11:45 46.10174 -2.26292 35973 ft 441 kts 33°
2026-05-06 11:46 46.15199 -2.21211 35980 ft 442 kts 33°
2026-05-06 11:46 46.20227 -2.16107 35976 ft 442 kts 33°
2026-05-06 11:47 46.25251 -2.10985 35978 ft 442 kts 33°
2026-05-06 11:47 46.30275 -2.05867 35979 ft 442 kts 34°
2026-05-06 11:48 46.35296 -2.00744 35979 ft 442 kts 34°
2026-05-06 11:48 46.40316 -1.95600 35983 ft 442 kts 34°
2026-05-06 11:49 46.45332 -1.90447 35979 ft 442 kts 34°
2026-05-06 11:49 46.50348 -1.85284 35980 ft 442 kts 34°
2026-05-06 11:50 46.55371 -1.80108 35980 ft 442 kts 34°
2026-05-06 11:50 46.60389 -1.74929 35983 ft 442 kts 34°
2026-05-06 11:51 46.65399 -1.69734 35989 ft 442 kts 34°
2026-05-06 11:51 46.70410 -1.64526 35990 ft 442 kts 34°
2026-05-06 11:52 46.75380 -1.59359 35985 ft 442 kts 34°
2026-05-06 11:52 46.80389 -1.54138 35983 ft 442 kts 34°
2026-05-06 11:53 46.85391 -1.48911 35983 ft 442 kts 34°
2026-05-06 11:53 46.90389 -1.43667 35979 ft 442 kts 34°
2026-05-06 11:54 46.95381 -1.38412 35967 ft 441 kts 35°
2026-05-06 11:54 46.99837 -1.32224 35969 ft 443 kts 47°
2026-05-06 11:55 47.03953 -1.25501 35969 ft 443 kts 47°
2026-05-06 11:55 47.08071 -1.18755 35968 ft 443 kts 47°
2026-05-06 11:56 47.12157 -1.12061 35968 ft 443 kts 47°
2026-05-06 11:56 47.16268 -1.05303 35970 ft 443 kts 47°
2026-05-06 11:57 47.20370 -0.98546 35972 ft 443 kts 47°
2026-05-06 11:57 47.24469 -0.91770 35966 ft 443 kts 47°
2026-05-06 11:58 47.28564 -0.84997 35968 ft 443 kts 47°
2026-05-06 11:58 47.32660 -0.78208 35970 ft 443 kts 47°
2026-05-06 11:59 47.36755 -0.71395 35970 ft 444 kts 47°
2026-05-06 11:59 47.40840 -0.64569 35972 ft 444 kts 47°
2026-05-06 12:00 47.45138 -0.58016 35974 ft 444 kts 37°
2026-05-06 12:00 47.50084 -0.52561 35971 ft 444 kts 36°
2026-05-06 12:01 47.55034 -0.47103 35973 ft 444 kts 36°
2026-05-06 12:01 47.59986 -0.41622 35973 ft 444 kts 36°
2026-05-06 12:02 47.64903 -0.36163 35974 ft 444 kts 36°
2026-05-06 12:02 47.69854 -0.30658 35973 ft 445 kts 36°
2026-05-06 12:03 47.74805 -0.25141 35974 ft 445 kts 36°
2026-05-06 12:03 47.79764 -0.19604 35974 ft 446 kts 36°
2026-05-06 12:04 47.84718 -0.14059 35976 ft 446 kts 36°
2026-05-06 12:04 47.89673 -0.08484 35964 ft 446 kts 37°
2026-05-06 12:05 47.94626 -0.02902 35969 ft 446 kts 36°
2026-05-06 12:05 47.99577 0.02675 35968 ft 446 kts 37°
2026-05-06 12:06 48.04531 0.08265 35966 ft 446 kts 37°
2026-05-06 12:06 48.09480 0.13879 35966 ft 446 kts 37°
2026-05-06 12:07 48.14421 0.19506 35965 ft 447 kts 37°
2026-05-06 12:07 48.19364 0.25138 35963 ft 447 kts 37°
2026-05-06 12:08 48.24312 0.30788 35964 ft 447 kts 37°
2026-05-06 12:08 48.29262 0.36449 35964 ft 447 kts 37°
2026-05-06 12:09 48.34209 0.42132 35967 ft 448 kts 37°
2026-05-06 12:09 48.39157 0.47828 35959 ft 448 kts 37°
2026-05-06 12:10 48.44103 0.53538 35960 ft 448 kts 37°
2026-05-06 12:10 48.49051 0.59269 35961 ft 448 kts 37°
2026-05-06 12:11 48.53966 0.64969 35958 ft 448 kts 37°
2026-05-06 12:11 48.58909 0.70711 35952 ft 449 kts 37°
2026-05-06 12:12 48.63855 0.76470 35951 ft 449 kts 37°
2026-05-06 12:12 48.68793 0.82245 35954 ft 449 kts 37°
2026-05-06 12:13 48.73728 0.88043 35950 ft 449 kts 37°
2026-05-06 12:13 48.78681 0.93809 35948 ft 449 kts 37°
2026-05-06 12:14 48.83670 0.99524 35945 ft 449 kts 37°
2026-05-06 12:14 48.88665 1.05247 35940 ft 450 kts 37°
2026-05-06 12:15 48.93623 1.10962 35941 ft 450 kts 37°
2026-05-06 12:15 48.98601 1.16746 35938 ft 450 kts 37°
2026-05-06 12:16 49.03548 1.22621 35932 ft 451 kts 42°
2026-05-06 12:16 49.08114 1.29170 35930 ft 451 kts 43°
2026-05-06 12:17 49.12679 1.35768 35931 ft 451 kts 44°
2026-05-06 12:17 49.17235 1.42368 35929 ft 452 kts 43°
2026-05-06 12:18 49.21800 1.48984 35927 ft 452 kts 44°
2026-05-06 12:18 49.26369 1.55631 35922 ft 453 kts 44°
2026-05-06 12:19 49.30936 1.62281 35926 ft 453 kts 44°
2026-05-06 12:19 49.35505 1.68958 35917 ft 454 kts 44°
2026-05-06 12:20 49.40073 1.75649 35920 ft 454 kts 44°
2026-05-06 12:20 49.43874 1.81223 35920 ft 454 kts 44°
2026-05-06 12:21 49.48444 1.87951 35917 ft 454 kts 44°
2026-05-06 12:21 49.53003 1.94686 35918 ft 455 kts 44°
2026-05-06 12:22 49.57557 2.01441 35922 ft 455 kts 44°
2026-05-06 12:22 49.62118 2.08219 35921 ft 455 kts 44°
2026-05-06 12:23 49.66673 2.14990 35923 ft 455 kts 44°
2026-05-06 12:23 49.71202 2.21747 35923 ft 455 kts 44°
2026-05-06 12:24 49.75760 2.28566 35915 ft 456 kts 44°
2026-05-06 12:24 49.80322 2.35409 35916 ft 456 kts 44°
2026-05-06 12:25 49.84879 2.42264 35923 ft 457 kts 45°
2026-05-06 12:25 49.89434 2.49143 35920 ft 457 kts 45°
2026-05-06 12:26 49.93986 2.56041 35921 ft 458 kts 43°
2026-05-06 12:26 49.99157 2.61783 35922 ft 458 kts 31°
2026-05-06 12:27 50.04642 2.66838 35922 ft 459 kts 31°
2026-05-06 12:27 50.10093 2.71903 35923 ft 459 kts 31°
2026-05-06 12:28 50.15573 2.77027 35921 ft 460 kts 31°
2026-05-06 12:28 50.21055 2.82160 35920 ft 460 kts 31°
2026-05-06 12:29 50.26538 2.87303 35918 ft 460 kts 31°
2026-05-06 12:29 50.32011 2.92438 35921 ft 460 kts 31°
2026-05-06 12:30 50.37484 2.97583 35924 ft 460 kts 31°
2026-05-06 12:30 50.42987 3.02783 35926 ft 459 kts 31°
2026-05-06 12:31 50.48459 3.07984 35930 ft 459 kts 31°
2026-05-06 12:31 50.53906 3.13167 35926 ft 459 kts 31°
2026-05-06 12:32 50.59376 3.18367 35933 ft 459 kts 31°
2026-05-06 12:32 50.64846 3.23594 35927 ft 459 kts 31°
2026-05-06 12:33 50.70311 3.28836 35928 ft 459 kts 31°
2026-05-06 12:33 50.75727 3.34041 35924 ft 458 kts 31°
2026-05-06 12:34 50.81171 3.39283 35917 ft 458 kts 31°
2026-05-06 12:34 50.86616 3.44542 35920 ft 458 kts 31°
2026-05-06 12:35 50.92053 3.49812 35909 ft 458 kts 31°
2026-05-06 12:35 50.97486 3.55093 35913 ft 458 kts 31°
2026-05-06 12:36 51.02916 3.60377 35913 ft 458 kts 32°
2026-05-06 12:36 51.08348 3.65687 35917 ft 458 kts 32°
2026-05-06 12:37 51.13777 3.71015 35916 ft 458 kts 32°
2026-05-06 12:37 51.19201 3.76341 35909 ft 458 kts 32°
2026-05-06 12:38 51.24623 3.81677 35913 ft 458 kts 32°
2026-05-06 12:38 51.30050 3.87037 35911 ft 458 kts 32°
2026-05-06 12:39 51.35467 3.92395 35904 ft 458 kts 32°
2026-05-06 12:39 51.40851 3.97739 35899 ft 458 kts 32°
2026-05-06 12:40 51.46262 4.03141 35897 ft 458 kts 32°
2026-05-06 12:40 51.51396 4.09193 35887 ft 458 kts 39°
2026-05-06 12:41 51.56365 4.15617 35888 ft 459 kts 39°
2026-05-06 12:41 51.61309 4.22008 35894 ft 459 kts 39°
2026-05-06 12:42 51.66285 4.28449 35893 ft 459 kts 39°
2026-05-06 12:42 51.71250 4.34910 35892 ft 459 kts 39°
2026-05-06 12:43 51.76211 4.41378 35888 ft 459 kts 39°
2026-05-06 12:43 51.81182 4.47878 35894 ft 459 kts 39°
2026-05-06 12:44 51.86137 4.54395 35890 ft 459 kts 39°
2026-05-06 12:44 51.91094 4.60929 35891 ft 460 kts 39°
2026-05-06 12:45 51.96025 4.67426 35886 ft 460 kts 39°
2026-05-06 12:46 52.03470 4.77273 35884 ft 460 kts 39°
2026-05-06 12:46 52.08425 4.83861 35886 ft 461 kts 39°
2026-05-06 12:47 52.13377 4.90478 35888 ft 461 kts 39°
2026-05-06 12:47 52.18345 4.97127 35887 ft 461 kts 39°
2026-05-06 12:48 52.23297 5.03765 35888 ft 461 kts 39°
2026-05-06 12:48 52.28258 5.10439 35891 ft 462 kts 39°
2026-05-06 12:49 52.33211 5.17128 35889 ft 462 kts 40°
2026-05-06 12:49 52.38166 5.23837 35895 ft 462 kts 40°
2026-05-06 12:50 52.43112 5.30555 35894 ft 462 kts 40°
2026-05-06 12:50 52.48063 5.37297 35901 ft 462 kts 40°
2026-05-06 12:51 52.53004 5.44038 35898 ft 463 kts 40°
2026-05-06 12:51 52.57952 5.50826 35895 ft 463 kts 40°
2026-05-06 12:52 52.62859 5.57573 35897 ft 463 kts 40°
2026-05-06 12:52 52.67802 5.64377 35900 ft 463 kts 40°
2026-05-06 12:53 52.72738 5.71198 35902 ft 463 kts 40°
2026-05-06 12:53 52.77711 5.78097 35908 ft 463 kts 40°
2026-05-06 12:54 52.82609 5.84919 35904 ft 463 kts 40°
2026-05-06 12:54 52.87536 5.91797 35900 ft 463 kts 40°
2026-05-06 12:55 52.92461 5.98690 35905 ft 464 kts 40°
2026-05-06 12:55 52.97383 6.05599 35908 ft 464 kts 40°
2026-05-06 12:56 53.02307 6.12516 35907 ft 464 kts 40°
2026-05-06 12:56 53.07234 6.19467 35903 ft 464 kts 40°
2026-05-06 12:57 53.12142 6.26442 35903 ft 465 kts 41°
2026-05-06 12:57 53.17057 6.33452 35903 ft 465 kts 41°
2026-05-06 12:58 53.21965 6.40458 35906 ft 465 kts 41°
2026-05-06 12:58 53.26884 6.47479 35901 ft 465 kts 41°
2026-05-06 12:59 53.31804 6.54524 35903 ft 466 kts 41°
2026-05-06 12:59 53.36678 6.61682 35907 ft 466 kts 43°
2026-05-06 13:00 53.41299 6.69196 35910 ft 466 kts 45°
2026-05-06 13:00 53.45865 6.76937 35921 ft 467 kts 45°
2026-05-06 13:01 53.50465 6.84634 35924 ft 467 kts 45°
2026-05-06 13:01 53.55107 6.92291 35920 ft 467 kts 44°
2026-05-06 13:02 53.59747 6.99948 35925 ft 468 kts 45°
2026-05-06 13:02 53.64380 7.07656 35926 ft 468 kts 45°
2026-05-06 13:03 53.69008 7.15383 35928 ft 468 kts 45°
2026-05-06 13:03 53.73640 7.23129 35922 ft 469 kts 45°
2026-05-06 13:04 53.78263 7.30892 35922 ft 469 kts 45°
2026-05-06 13:04 53.82888 7.38696 35924 ft 470 kts 45°
2026-05-06 13:05 53.87512 7.46530 35927 ft 470 kts 45°
2026-05-06 13:05 53.92135 7.54380 35915 ft 470 kts 45°
2026-05-06 13:06 53.96749 7.62244 35924 ft 470 kts 45°
2026-05-06 13:06 54.01370 7.70132 35925 ft 471 kts 45°
2026-05-06 13:07 54.05954 7.77988 35927 ft 471 kts 45°
2026-05-06 13:07 54.10563 7.85924 35931 ft 471 kts 45°
2026-05-06 13:08 54.15165 7.93876 35932 ft 471 kts 45°
2026-05-06 13:08 54.18829 8.00216 35933 ft 471 kts 46°
2026-05-06 13:09 54.23430 8.08204 35931 ft 471 kts 46°
2026-05-06 13:09 54.27989 8.16141 35933 ft 472 kts 46°
2026-05-06 13:10 54.32581 8.24175 35930 ft 472 kts 46°
2026-05-06 13:10 54.37171 8.32224 35928 ft 472 kts 46°
2026-05-06 13:11 54.41761 8.40300 35926 ft 472 kts 46°
2026-05-06 13:11 54.46344 8.48400 35922 ft 473 kts 46°
2026-05-06 13:12 54.50921 8.56528 35918 ft 473 kts 46°
2026-05-06 13:12 54.55500 8.64684 35917 ft 474 kts 46°
2026-05-06 13:13 54.60075 8.72848 35912 ft 474 kts 46°
2026-05-06 13:13 54.64657 8.81046 35910 ft 474 kts 46°
2026-05-06 13:14 54.69236 8.89262 35908 ft 475 kts 46°
2026-05-06 13:14 54.73808 8.97515 35911 ft 475 kts 46°
2026-05-06 13:15 54.78387 9.05800 35910 ft 476 kts 47°
2026-05-06 13:15 54.80674 9.09953 35697 ft 476 kts 47°
2026-05-06 13:15 54.82958 9.14113 35442 ft 476 kts 47°
2026-05-06 13:15 54.85238 9.18273 35206 ft 476 kts 47°
2026-05-06 13:16 54.87501 9.22456 34975 ft 475 kts 48°
2026-05-06 13:16 54.89719 9.26715 34723 ft 475 kts 49°
2026-05-06 13:16 54.91898 9.31019 34483 ft 475 kts 50°
2026-05-06 13:16 54.94064 9.35367 34243 ft 475 kts 50°
2026-05-06 13:17 54.96223 9.39721 34009 ft 475 kts 50°
2026-05-06 13:17 54.98379 9.44067 33739 ft 475 kts 50°
2026-05-06 13:17 55.00540 9.48399 33470 ft 475 kts 50°
2026-05-06 13:17 55.02715 9.52739 32993 ft 475 kts 50°
2026-05-06 13:18 55.04874 9.57038 32447 ft 469 kts 50°
2026-05-06 13:18 55.07023 9.61317 31877 ft 465 kts 50°
2026-05-06 13:18 55.09056 9.65657 31322 ft 460 kts 57°
2026-05-06 13:18 55.10705 9.70399 30775 ft 454 kts 66°
2026-05-06 13:19 55.11921 9.75441 30235 ft 448 kts 75°
2026-05-06 13:19 55.12848 9.80602 29651 ft 444 kts 76°
2026-05-06 13:19 55.13763 9.85719 29135 ft 438 kts 75°
2026-05-06 13:19 55.14666 9.90775 28633 ft 433 kts 75°
2026-05-06 13:20 55.15557 9.95778 28101 ft 429 kts 75°
2026-05-06 13:20 55.16437 10.00736 27616 ft 425 kts 75°
2026-05-06 13:20 55.17307 10.05645 27121 ft 420 kts 75°
2026-05-06 13:20 55.18154 10.10540 26262 ft 425 kts 76°
2026-05-06 13:21 55.18962 10.15527 25705 ft 424 kts 76°
2026-05-06 13:21 55.19727 10.20479 25204 ft 420 kts 77°
2026-05-06 13:21 55.20471 10.25403 24717 ft 417 kts 77°
2026-05-06 13:21 55.21207 10.30292 24227 ft 414 kts 77°
2026-05-06 13:22 55.21943 10.35158 23733 ft 412 kts 77°
2026-05-06 13:22 55.22681 10.39992 23198 ft 410 kts 76°
2026-05-06 13:22 55.23421 10.44788 22696 ft 406 kts 76°
2026-05-06 13:22 55.24158 10.49544 22213 ft 402 kts 76°
2026-05-06 13:23 55.24887 10.54258 21717 ft 399 kts 76°
2026-05-06 13:23 55.25606 10.58937 21225 ft 397 kts 76°
2026-05-06 13:23 55.26322 10.63614 20725 ft 396 kts 76°
2026-05-06 13:23 55.27025 10.68223 20213 ft 394 kts 76°
2026-05-06 13:24 55.27733 10.72893 19725 ft 392 kts 76°
2026-05-06 13:24 55.28429 10.77516 19209 ft 391 kts 76°
2026-05-06 13:24 55.29123 10.82122 18705 ft 390 kts 75°
2026-05-06 13:24 55.29813 10.86725 18201 ft 389 kts 75°
2026-05-06 13:25 55.30498 10.91314 17655 ft 387 kts 75°
2026-05-06 13:25 55.31174 10.95864 17173 ft 384 kts 75°
2026-05-06 13:25 55.31834 11.00320 16690 ft 381 kts 75°
2026-05-06 13:25 55.32500 11.04808 16201 ft 379 kts 75°
2026-05-06 13:26 55.33161 11.09270 15780 ft 375 kts 75°
2026-05-06 13:26 55.33815 11.13681 15328 ft 373 kts 75°
2026-05-06 13:26 55.34467 11.18093 14854 ft 372 kts 75°
2026-05-06 13:26 55.35114 11.22476 14382 ft 370 kts 75°
2026-05-06 13:27 55.35754 11.26841 13917 ft 369 kts 75°
2026-05-06 13:27 55.36388 11.31192 13479 ft 365 kts 76°
2026-05-06 13:27 55.37014 11.35514 13004 ft 362 kts 76°
2026-05-06 13:27 55.37631 11.39792 12526 ft 360 kts 75°
2026-05-06 13:28 55.38240 11.44007 11983 ft 349 kts 75°
2026-05-06 13:28 55.38831 11.48096 11511 ft 344 kts 75°
2026-05-06 13:28 55.39416 11.52158 11065 ft 341 kts 75°
2026-05-06 13:28 55.39997 11.56188 10714 ft 336 kts 75°
2026-05-06 13:29 55.40570 11.60175 10239 ft 336 kts 75°
2026-05-06 13:29 55.41130 11.64107 10064 ft 328 kts 75°
2026-05-06 13:29 55.41684 11.68011 9985 ft 328 kts 75°
2026-05-06 13:29 55.42236 11.71908 9562 ft 330 kts 75°
2026-05-06 13:30 55.42789 11.75802 9215 ft 322 kts 75°
2026-05-06 13:30 55.43328 11.79586 8579 ft 316 kts 75°
2026-05-06 13:30 55.43857 11.83313 8085 ft 312 kts 75°
2026-05-06 13:30 55.44377 11.87004 7633 ft 310 kts 76°
2026-05-06 13:31 55.44733 11.90709 7176 ft 307 kts 89°
2026-05-06 13:31 55.44593 11.94379 6720 ft 293 kts 95°
2026-05-06 13:31 55.44387 11.97859 6326 ft 277 kts 95°
2026-05-06 13:31 55.44182 12.01133 5938 ft 264 kts 95°
2026-05-06 13:32 55.43976 12.04340 5552 ft 262 kts 95°
2026-05-06 13:32 55.43770 12.07513 5162 ft 259 kts 95°
2026-05-06 13:32 55.43561 12.10653 4813 ft 256 kts 95°
2026-05-06 13:32 55.43351 12.13760 4542 ft 254 kts 95°
2026-05-06 13:33 55.43143 12.16828 4388 ft 253 kts 95°
2026-05-06 13:33 55.42941 12.19874 4252 ft 245 kts 95°
2026-05-06 13:33 55.42901 12.22772 4121 ft 231 kts 80°
2026-05-06 13:33 55.43227 12.25477 3982 ft 221 kts 76°
2026-05-06 13:34 55.43603 12.28080 3862 ft 218 kts 75°
2026-05-06 13:34 55.43984 12.30619 3727 ft 210 kts 75°
2026-05-06 13:34 55.44354 12.33055 3601 ft 203 kts 75°
2026-05-06 13:34 55.44717 12.35407 3477 ft 196 kts 75°
2026-05-06 13:35 55.45072 12.37655 3336 ft 190 kts 72°
2026-05-06 13:35 55.45739 12.39616 3283 ft 182 kts 48°
2026-05-06 13:35 55.46667 12.41069 3221 ft 179 kts 43°
2026-05-06 13:35 55.47606 12.42502 3079 ft 178 kts 44°
2026-05-06 13:36 55.48539 12.43929 2878 ft 177 kts 44°
2026-05-06 13:36 55.49469 12.45354 2645 ft 175 kts 44°
2026-05-06 13:36 55.50382 12.46752 2412 ft 172 kts 44°
2026-05-06 13:36 55.51271 12.48116 2178 ft 167 kts 45°
2026-05-06 13:37 55.52129 12.49432 1950 ft 160 kts 45°
2026-05-06 13:37 55.52960 12.50710 1761 ft 158 kts 46°
2026-05-06 13:37 55.53769 12.51952 1535 ft 147 kts 45°
2026-05-06 13:37 55.54517 12.53102 1325 ft 139 kts 46°
2026-05-06 13:38 55.55238 12.54212 1137 ft 136 kts 46°
2026-05-06 13:38 55.55950 12.55306 951 ft 134 kts 47°
2026-05-06 13:38 55.56653 12.56392 760 ft 135 kts 46°
2026-05-06 13:38 55.57362 12.57492 538 ft 136 kts 45°
2026-05-06 13:39 55.58080 12.58595 367 ft 137 kts 45°
2026-05-06 13:39 55.58800 12.59693 180 ft 136 kts 46°
2026-05-06 13:39 55.59507 12.60788 32 ft 131 kts 47°
2026-05-06 13:39 55.60102 12.61718 26 ft 92 kts 41°
2026-05-06 13:40 55.60466 12.62279 25 ft 55 kts 41°
2026-05-06 13:40 55.60705 12.62643 31 ft 36 kts 40°
2026-05-06 13:40 55.60888 12.62837 26 ft 28 kts 17°
2026-05-06 13:40 55.61051 12.62899 24 ft 22 kts 11°
2026-05-06 13:41 55.61179 12.62999 24 ft 20 kts 39°
2026-05-06 13:41 55.61282 12.63159 25 ft 19 kts 42°
2026-05-06 13:41 55.61387 12.63322 25 ft 21 kts 40°
2026-05-06 13:41 55.61493 12.63485 24 ft 20 kts 41°
2026-05-06 13:42 55.61591 12.63636 24 ft 19 kts 41°
2026-05-06 13:42 55.61687 12.63784 24 ft 18 kts 41°
2026-05-06 13:42 55.61773 12.63918 24 ft 17 kts 42°
2026-05-06 13:42 55.61868 12.64062 24 ft 19 kts 35°
2026-05-06 13:43 55.61986 12.64167 24 ft 19 kts 25°
2026-05-06 13:43 55.62110 12.64270 24 ft 20 kts 25°
2026-05-06 13:43 55.62234 12.64372 22 ft 19 kts 22°
2026-05-06 13:43 55.62349 12.64430 24 ft 16 kts 15°
2026-05-06 13:44 55.62442 12.64473 24 ft 13 kts 14°
2026-05-06 13:44 55.62521 12.64417 24 ft 15 kts 305°
2026-05-06 13:44 55.62578 12.64264 24 ft 15 kts 302°
2026-05-06 13:44 55.62632 12.64117 24 ft 14 kts 303°
2026-05-06 13:45 55.62683 12.63979 24 ft 13 kts 303°
2026-05-06 13:45 55.62812 12.64006 25 ft 9 kts 47°
2026-05-06 13:45 55.62859 12.64059 24 ft 7 kts 10°
2026-05-06 13:46 55.62880 12.64066 24 ft 2 kts 11°
2026-05-06 13:46 55.62882 12.64066 24 ft 0 kts 11°